datetime,storage
2020-12-26,25384.0
2020-12-27,
2020-12-28,
2020-12-29,
2020-12-30,
2020-12-31,
2021-01-01,
2021-01-02,
2021-01-03,
2021-01-04,
2021-01-05,
2021-01-06,
2021-01-07,
2021-01-08,
2021-01-09,
2021-01-10,
2021-01-11,
2021-01-12,
2021-01-13,
2021-01-14,
2021-01-15,
2021-01-16,
2021-01-17,
2021-01-18,
2021-01-19,
2021-01-20,
2021-01-21,
2021-01-22,
2021-01-23,
2021-01-24,
2021-01-25,
2021-01-26,
2021-01-27,
2021-01-28,
2021-01-29,
2021-01-30,
2021-01-31,
2021-02-01,
2021-02-02,
2021-02-03,
2021-02-04,
2021-02-05,
2021-02-06,
2021-02-07,
2021-02-08,
2021-02-09,
2021-02-10,
2021-02-11,
2021-02-12,
2021-02-13,
2021-02-14,
2021-02-15,
2021-02-16,
2021-02-17,
2021-02-18,
2021-02-19,
2021-02-20,
2021-02-21,
2021-02-22,
2021-02-23,
2021-02-24,
2021-02-25,
2021-02-26,
2021-02-27,
2021-02-28,
2021-03-01,
2021-03-02,
2021-03-03,
2021-03-04,
2021-03-05,
2021-03-06,
2021-03-07,
2021-03-08,
2021-03-09,
2021-03-10,
2021-03-11,
2021-03-12,
2021-03-13,
2021-03-14,
2021-03-15,
2021-03-16,
2021-03-17,
2021-03-18,
2021-03-19,
2021-03-20,
2021-03-21,
2021-03-22,28574.0
2021-03-23,28624.0
2021-03-24,28674.0
2021-03-25,28750.0
2021-03-26,28800.0
2021-03-27,28824.0
2021-03-28,28924.0
2021-03-29,29000.0
2021-03-30,29024.0
2021-03-31,29049.0
2021-04-01,29074.0
2021-04-02,29099.0
2021-04-03,29149.0
2021-04-04,29149.0
2021-04-05,29149.0
2021-04-06,29149.0
2021-04-07,29149.0
2021-04-08,29124.0
2021-04-09,29149.0
2021-04-10,29049.0
2021-04-11,29049.0
2021-04-12,29049.0
2021-04-13,29024.0
2021-04-14,28950.0
2021-04-15,28900.0
2021-04-16,28824.0
2021-04-17,28724.0
2021-04-18,28624.0
2021-04-19,28450.0
2021-04-20,28350.0
2021-04-21,28150.0
2021-04-22,27949.0
2021-04-23,27824.0
2021-04-24,27750.0
2021-04-25,27700.0
2021-04-26,27624.0
2021-04-27,27524.0
2021-04-28,27401.0
2021-04-29,27229.0
2021-04-30,27107.0
2021-05-01,26911.0
2021-05-02,26763.0
2021-05-03,26567.0
2021-05-04,26374.0
2021-05-05,26230.0
2021-05-06,25990.0
2021-05-07,25716.0
2021-05-08,25524.0
2021-05-09,25338.0
2021-05-10,25101.0
2021-05-11,24909.0
2021-05-12,24694.0
2021-05-13,24458.0
2021-05-14,24247.0
2021-05-15,23988.0
2021-05-16,23758.0
2021-05-17,23501.0
2021-05-18,23265.0
2021-05-19,22988.0
2021-05-20,22782.0
2021-05-21,22552.0
2021-05-22,22322.0
2021-05-23,22140.0
2021-05-24,22027.0
2021-05-25,21780.0
2021-05-26,21600.0
2021-05-27,21375.0
2021-05-28,21198.0
2021-05-29,20971.0
2021-05-30,20747.0
2021-05-31,20528.0
2021-06-01,20308.0
2021-06-02,20088.0
2021-06-03,19823.0
2021-06-04,19586.0
2021-06-05,19328.0
2021-06-06,19071.0
2021-06-07,18857.0
2021-06-08,18599.0
2021-06-09,18406.0
2021-06-10,18132.0
2021-06-11,17924.0
2021-06-12,17755.0
2021-06-13,17502.0
2021-06-14,17272.0
2021-06-15,17050.0
2021-06-16,16842.0
2021-06-17,16598.0
2021-06-18,16350.0
2021-06-19,16130.0
2021-06-20,15890.0
2021-06-21,15621.0
2021-06-22,15505.0
2021-06-23,15270.0
2021-06-24,15010.0
2021-06-25,14734.0
2021-06-26,14520.0
2021-06-27,14268.0
2021-06-28,13980.0
2021-06-29,13725.0
2021-06-30,13441.0
2021-07-01,13194.0
2021-07-02,12936.0
2021-07-03,12656.0
2021-07-04,12397.0
2021-07-05,12160.0
2021-07-06,11904.0
2021-07-07,11681.0
2021-07-08,11413.0
2021-07-09,11206.0
2021-07-10,10935.0
2021-07-11,10712.0
2021-07-12,10465.0
2021-07-13,10244.0
2021-07-14,9996.0
2021-07-15,9763.0
2021-07-16,9545.0
2021-07-17,9295.0
2021-07-18,9079.0
2021-07-19,8849.0
2021-07-20,8610.0
2021-07-21,
2021-07-22,
2021-07-23,7932.0
2021-07-24,7719.0
2021-07-25,7480.0
2021-07-26,7274.0
2021-07-27,7080.0
2021-07-28,6860.0
2021-07-29,6663.0
2021-07-30,6441.0
2021-07-31,6263.0
2021-08-01,6053.0
2021-08-02,5829.0
2021-08-03,5636.0
2021-08-04,5421.0
2021-08-05,5214.0
2021-08-06,4985.0
2021-08-07,4785.0
2021-08-08,4559.0
2021-08-09,4358.0
2021-08-10,4162.0
2021-08-11,3954.0
2021-08-12,3740.0
2021-08-13,3536.0
2021-08-14,3348.0
2021-08-15,3142.0
2021-08-16,2935.0
2021-08-17,2693.0
2021-08-18,2482.0
2021-08-19,2358.0
2021-08-20,2352.0
2021-08-21,2338.0
2021-08-22,2331.0
2021-08-23,2317.0
2021-08-24,2310.0
2021-08-25,2290.0
2021-08-26,2283.0
2021-08-27,2270.0
2021-08-28,2263.0
2021-08-29,2243.0
2021-08-30,2236.0
2021-08-31,2223.0
2021-09-01,2210.0
2021-09-02,2203.0
2021-09-03,2190.0
2021-09-04,2184.0
2021-09-05,2171.0
2021-09-06,2164.0
2021-09-07,2151.0
2021-09-08,2151.0
2021-09-09,2138.0
2021-09-10,2171.0
2021-09-11,2164.0
2021-09-12,2151.0
2021-09-13,2144.0
2021-09-14,2131.0
2021-09-15,2131.0
2021-09-16,2118.0
2021-09-17,2103.0
2021-09-18,2110.0
2021-09-19,2103.0
2021-09-20,2096.0
2021-09-21,2089.0
2021-09-22,2074.0
2021-09-23,2067.0
2021-09-24,2060.0
2021-09-25,2047.0
2021-09-26,2041.0
2021-09-27,2047.0
2021-09-28,2047.0
2021-09-29,2035.0
2021-09-30,2029.0
2021-10-01,2022.0
2021-10-02,2022.0
2021-10-03,2016.0
2021-10-04,2010.0
2021-10-05,1998.0
2021-10-06,1998.0
2021-10-07,1998.0
2021-10-08,1986.0
2021-10-09,1980.0
2021-10-10,1968.0
2021-10-11,1957.0
2021-10-12,1951.0
2021-10-13,1945.0
2021-10-14,1951.0
2021-10-15,1945.0
2021-10-16,1945.0
2021-10-17,1933.0
2021-10-18,1939.0
2021-10-19,1939.0
2021-10-20,1939.0
2021-10-21,1927.0
2021-10-22,2004.0
2021-10-23,2029.0
2021-10-24,2164.0
2021-10-25,2210.0
2021-10-26,2236.0
2021-10-27,2243.0
2021-10-28,2250.0
2021-10-29,2256.0
2021-10-30,2256.0
2021-10-31,2263.0
2021-11-01,2276.0
2021-11-02,2276.0
2021-11-03,2283.0
2021-11-04,2276.0
2021-11-05,2303.0
2021-11-06,2324.0
2021-11-07,2365.0
2021-11-08,2372.0
2021-11-09,2393.0
2021-11-10,2409.0
2021-11-11,2442.0
2021-11-12,2475.0
2021-11-13,2482.0
2021-11-14,2489.0
2021-11-15,2482.0
2021-11-16,2489.0
2021-11-17,2482.0
2021-11-18,2489.0
2021-11-19,2482.0
2021-11-20,2482.0
2021-11-21,2475.0
2021-11-22,2467.0
2021-11-23,2475.0
2021-11-24,2458.0
2021-11-25,2458.0
2021-11-26,2458.0
2021-11-27,2458.0
2021-11-28,2450.0
2021-11-29,2450.0
2021-11-30,2458.0
2021-12-01,2442.0
2021-12-02,2442.0
2021-12-03,2434.0
2021-12-04,2434.0
2021-12-05,2426.0
2021-12-06,2426.0
2021-12-07,2426.0
2021-12-08,2417.0
2021-12-09,2409.0
2021-12-10,2409.0
2021-12-11,2417.0
2021-12-12,2409.0
2021-12-13,2434.0
2021-12-14,2442.0
2021-12-15,2467.0
2021-12-16,2458.0
2021-12-17,2450.0
2021-12-18,2450.0
2021-12-19,2450.0
2021-12-20,2442.0
2021-12-21,2442.0
2021-12-22,2442.0
2021-12-23,2482.0
2021-12-24,2504.0
2021-12-25,2497.0
2021-12-26,2526.0
2021-12-27,2526.0
2021-12-28,2533.0
2021-12-29,2533.0
2021-12-30,2541.0
2021-12-31,2533.0
2022-01-01,2533.0
2022-01-02,2541.0
2022-01-03,2548.0
2022-01-04,2556.0
2022-01-05,2578.0
2022-01-06,2678.0
2022-01-07,2953.0
2022-01-08,3221.0
2022-01-09,3394.0
2022-01-10,3527.0
2022-01-11,3546.0
2022-01-12,3623.0
2022-01-13,3701.0
2022-01-14,3770.0
2022-01-15,3821.0
2022-01-16,3862.0
2022-01-17,3882.0
2022-01-18,3903.0
2022-01-19,3923.0
2022-01-20,3944.0
2022-01-21,3954.0
2022-01-22,3964.0
2022-01-23,3985.0
2022-01-24,3995.0
2022-01-25,4006.0
2022-01-26,4006.0
2022-01-27,4006.0
2022-01-28,4006.0
2022-01-29,4006.0
2022-01-30,4006.0
2022-01-31,4018.0
2022-02-01,4006.0
2022-02-02,4006.0
2022-02-03,4006.0
2022-02-04,4006.0
2022-02-05,4018.0
2022-02-06,4029.0
2022-02-07,4051.0
2022-02-08,4096.0
2022-02-09,4238.0
2022-02-10,4424.0
2022-02-11,4596.0
2022-02-12,4762.0
2022-02-13,4938.0
2022-02-14,5190.0
2022-02-15,5396.0
2022-02-16,5546.0
2022-02-17,5661.0
2022-02-18,5777.0
2022-02-19,5933.0
2022-02-20,6139.0
2022-02-21,6263.0
2022-02-22,6344.0
2022-02-23,6386.0
2022-02-24,6413.0
2022-02-25,6441.0
2022-02-26,6468.0
2022-02-27,6482.0
2022-02-28,6579.0
2022-03-01,7230.0
2022-03-02,7916.0
2022-03-03,8468.0
2022-03-04,8865.0
2022-03-05,9112.0
2022-03-06,9295.0
2022-03-07,9428.0
2022-03-08,9579.0
2022-03-09,9763.0
2022-03-10,9880.0
2022-03-11,9980.0
2022-03-12,10084.0
2022-03-13,10210.0
2022-03-14,10244.0
2022-03-15,10482.0
2022-03-16,10640.0
2022-03-17,10764.0
2022-03-18,10831.0
2022-03-19,10918.0
2022-03-20,11044.0
2022-03-21,11134.0
2022-03-22,11206.0
2022-03-23,11242.0
2022-03-24,11311.0
2022-03-25,11311.0
2022-03-26,11345.0
2022-03-27,11379.0
2022-03-28,11379.0
2022-03-29,11396.0
2022-03-30,11379.0
2022-03-31,11379.0
2022-04-01,11396.0
2022-04-02,11379.0
2022-04-03,11379.0
2022-04-04,11413.0
2022-04-05,11413.0
2022-04-06,11413.0
2022-04-07,11413.0
2022-04-08,11396.0
2022-04-09,11379.0
2022-04-10,11362.0
2022-04-11,11379.0
2022-04-12,11396.0
2022-04-13,11430.0
2022-04-14,11484.0
2022-04-15,11538.0
2022-04-16,11789.0
2022-04-17,12070.0
2022-04-18,12340.0
2022-04-19,12843.0
2022-04-20,13308.0
2022-04-21,13821.0
2022-04-22,14306.0
2022-04-23,14560.0
2022-04-24,14695.0
2022-04-25,14810.0
2022-04-26,14870.0
2022-04-27,14910.0
2022-04-28,14990.0
2022-04-29,15050.0
2022-04-30,15070.0
2022-05-01,15150.0
2022-05-02,15130.0
2022-05-03,15170.0
2022-05-04,15210.0
2022-05-05,15190.0
2022-05-06,15170.0
2022-05-07,15170.0
2022-05-08,15230.0
2022-05-09,15210.0
2022-05-10,15250.0
2022-05-11,15250.0
2022-05-12,15270.0
2022-05-13,15270.0
2022-05-14,15270.0
2022-05-15,15270.0
2022-05-16,15230.0
2022-05-17,15170.0
2022-05-18,15030.0
2022-05-19,14870.0
2022-05-20,14677.0
2022-05-21,14520.0
2022-05-22,14306.0
2022-05-23,14097.0
2022-05-24,13880.0
2022-05-25,13649.0
2022-05-26,13403.0
2022-05-27,13175.0
2022-05-28,12936.0
2022-05-29,12729.0
2022-05-30,12511.0
2022-05-31,12268.0
2022-06-01,12052.0
2022-06-02,11827.0
2022-06-03,11664.0
2022-06-04,11538.0
2022-06-05,11345.0
2022-06-06,11152.0
2022-06-07,10935.0
2022-06-08,10747.0
2022-06-09,10550.0
2022-06-10,10329.0
2022-06-11,10120.0
2022-06-12,9963.0
2022-06-13,9763.0
2022-06-14,9579.0
2022-06-15,9378.0
2022-06-16,9179.0
2022-06-17,8979.0
2022-06-18,8801.0
2022-06-19,8578.0
2022-06-20,8388.0
2022-06-21,8203.0
2022-06-22,8014.0
2022-06-23,7810.0
2022-06-24,7554.0
2022-06-25,7377.0
2022-06-26,7172.0
2022-06-27,6903.0
2022-06-28,6663.0
2022-06-29,6427.0
2022-06-30,6167.0
2022-07-01,5946.0
2022-07-02,5700.0
2022-07-03,5495.0
2022-07-04,5290.0
2022-07-05,5057.0
2022-07-06,4843.0
2022-07-07,4621.0
2022-07-08,4380.0
2022-07-09,4140.0
2022-07-10,3923.0
2022-07-11,3691.0
2022-07-12,3467.0
2022-07-13,3239.0
2022-07-14,3021.0
2022-07-15,2780.0
2022-07-16,2533.0
2022-07-17,2270.0
2022-07-18,2096.0
2022-07-19,2082.0
2022-07-20,2060.0
2022-07-21,2041.0
2022-07-22,2010.0
2022-07-23,1998.0
2022-07-24,1974.0
2022-07-25,1968.0
2022-07-26,1951.0
2022-07-27,1939.0
2022-07-28,1922.0
2022-07-29,1905.0
2022-07-30,1893.0
2022-07-31,1882.0
2022-08-01,1876.0
2022-08-02,1871.0
2022-08-03,1859.0
2022-08-04,1842.0
2022-08-05,1831.0
2022-08-06,1820.0
2022-08-07,1807.0
2022-08-08,1794.0
2022-08-09,1775.0
2022-08-10,1756.0
2022-08-11,1741.0
2022-08-12,1730.0
2022-08-13,1720.0
2022-08-14,1700.0
2022-08-15,1690.0
2022-08-16,1680.0
2022-08-17,1675.0
2022-08-18,1670.0
2022-08-19,1665.0
2022-08-20,1655.0
2022-08-21,1640.0
2022-08-22,1631.0
2022-08-23,1621.0
2022-08-24,1606.0
2022-08-25,1597.0
2022-08-26,1588.0
2022-08-27,1574.0
2022-08-28,1569.0
2022-08-29,1555.0
2022-08-30,1546.0
2022-08-31,1537.0
2022-09-01,1528.0
2022-09-02,1510.0
2022-09-03,1499.0
2022-09-04,1483.0
2022-09-05,1478.0
2022-09-06,1467.0
2022-09-07,1458.0
2022-09-08,1450.0
2022-09-09,1441.0
2022-09-10,1433.0
2022-09-11,1425.0
2022-09-12,1421.0
2022-09-13,1417.0
2022-09-14,1409.0
2022-09-15,1405.0
2022-09-16,1398.0
2022-09-17,1390.0
2022-09-18,1386.0
2022-09-19,1382.0
2022-09-20,1398.0
2022-09-21,1398.0
2022-09-22,1394.0
2022-09-23,1390.0
2022-09-24,1386.0
2022-09-25,1382.0
2022-09-26,1374.0
2022-09-27,1367.0
2022-09-28,1363.0
2022-09-29,1355.0
2022-09-30,1351.0
2022-10-01,1348.0
2022-10-02,1348.0
2022-10-03,1340.0
2022-10-04,1337.0
2022-10-05,1333.0
2022-10-06,1329.0
2022-10-07,1326.0
2022-10-08,1319.0
2022-10-09,1319.0
2022-10-10,1315.0
2022-10-11,1308.0
2022-10-12,1308.0
2022-10-13,1303.0
2022-10-14,1299.0
2022-10-15,1295.0
2022-10-16,1290.0
2022-10-17,1286.0
2022-10-18,1282.0
2022-10-19,1277.0
2022-10-20,1273.0
2022-10-21,1268.0
2022-10-22,1264.0
2022-10-23,1261.0
2022-10-24,1257.0
2022-10-25,1257.0
2022-10-26,1254.0
2022-10-27,1251.0
2022-10-28,1251.0
2022-10-29,1251.0
2022-10-30,1247.0
2022-10-31,1247.0
2022-11-01,1254.0
2022-11-02,1261.0
2022-11-03,1257.0
2022-11-04,1257.0
2022-11-05,1268.0
2022-11-06,1277.0
2022-11-07,1290.0
2022-11-08,1295.0
2022-11-09,1299.0
2022-11-10,1299.0
2022-11-11,1295.0
2022-11-12,1299.0
2022-11-13,1299.0
2022-11-14,1295.0
2022-11-15,1286.0
2022-11-16,1277.0
2022-11-17,1273.0
2022-11-18,1264.0
2022-11-19,1261.0
2022-11-20,1257.0
2022-11-21,1251.0
2022-11-22,1241.0
2022-11-23,1238.0
2022-11-24,1231.0
2022-11-25,1224.0
2022-11-26,1221.0
2022-11-27,1218.0
2022-11-28,1211.0
2022-11-29,1208.0
2022-11-30,1205.0
2022-12-01,1218.0
2022-12-02,1215.0
2022-12-03,1211.0
2022-12-04,1215.0
2022-12-05,1215.0
2022-12-06,1215.0
2022-12-07,1211.0
2022-12-08,1211.0
2022-12-09,1211.0
2022-12-10,1211.0
2022-12-11,1211.0
2022-12-12,1208.0
2022-12-13,1205.0
2022-12-14,1198.0
2022-12-15,1192.0
2022-12-16,1189.0
2022-12-17,1183.0
2022-12-18,1179.0
2022-12-19,1170.0
2022-12-20,1167.0
2022-12-21,1164.0
2022-12-22,1164.0
2022-12-23,1167.0
2022-12-24,1176.0
2022-12-25,1192.0
2022-12-26,1329.0
2022-12-27,2310.0
2022-12-28,2624.0
2022-12-29,2717.0
2022-12-30,2870.0
2022-12-31,3565.0
2023-01-01,3985.0
2023-01-02,4140.0
2023-01-03,4216.0
2023-01-04,4281.0
2023-01-05,4681.0
2023-01-06,4985.0
2023-01-07,5165.0
2023-01-08,5343.0
2023-01-09,5585.0
2023-01-10,5713.0
2023-01-11,5829.0
2023-01-12,6139.0
2023-01-13,6975.0
2023-01-14,7689.0
2023-01-15,8172.0
2023-01-16,8468.0
2023-01-17,8658.0
2023-01-18,8801.0
2023-01-19,8914.0
2023-01-20,8996.0
2023-01-21,9029.0
2023-01-22,9096.0
2023-01-23,9112.0
2023-01-24,9162.0
2023-01-25,9179.0
2023-01-26,9212.0
2023-01-27,9228.0
2023-01-28,9245.0
2023-01-29,9262.0
2023-01-30,9245.0
2023-01-31,9245.0
2023-02-01,9245.0
2023-02-02,9245.0
2023-02-03,9245.0
2023-02-04,9279.0
2023-02-05,9279.0
2023-02-06,9295.0
2023-02-07,9312.0
2023-02-08,9312.0
2023-02-09,9312.0
2023-02-10,9345.0
2023-02-11,9312.0
2023-02-12,9345.0
2023-02-13,9345.0
2023-02-14,9361.0
2023-02-15,9361.0
2023-02-16,9378.0
2023-02-17,9378.0
2023-02-18,9378.0
2023-02-19,9378.0
2023-02-20,9395.0
2023-02-21,9378.0
2023-02-22,9378.0
2023-02-23,9378.0
2023-02-24,9378.0
2023-02-25,9378.0
2023-02-26,9412.0
2023-02-27,9428.0
2023-02-28,9445.0
2023-03-01,9428.0
2023-03-02,9428.0
2023-03-03,9445.0
2023-03-04,9462.0
2023-03-05,9462.0
2023-03-06,9462.0
2023-03-07,9495.0
2023-03-08,9545.0
2023-03-09,9629.0
2023-03-10,9645.0
2023-03-11,9645.0
2023-03-12,9663.0
2023-03-13,9730.0
2023-03-14,10065.0
2023-03-15,10550.0
2023-03-16,10935.0
2023-03-17,11311.0
2023-03-18,11809.0
2023-03-19,12566.0
2023-03-20,13194.0
2023-03-21,13669.0
2023-03-22,14211.0
2023-03-23,14734.0
2023-03-24,15090.0
2023-03-25,15350.0
2023-03-26,15543.0
2023-03-27,15726.0
2023-03-28,15890.0
2023-03-29,16090.0
2023-03-30,16230.0
2023-03-31,16370.0
2023-04-01,16659.0
2023-04-02,16884.0
2023-04-03,17050.0
2023-04-04,17170.0
2023-04-05,17292.0
2023-04-06,17565.0
2023-04-07,18280.0
2023-04-08,19414.0
2023-04-09,20995.0
2023-04-10,23804.0
2023-04-11,30203.0
2023-04-12,33380.0
2023-04-13,35242.0
2023-04-14,36650.0
2023-04-15,38011.0
2023-04-16,39554.0
2023-04-17,40484.0
2023-04-18,41314.0
2023-04-19,41954.0
2023-04-20,42532.0
2023-04-21,43123.0
2023-04-22,43858.0
2023-04-23,44622.0
2023-04-24,45340.0
2023-04-25,45899.0
2023-04-26,46410.0
2023-04-27,46770.0
2023-04-28,47099.0
2023-04-29,47309.0
2023-04-30,47460.0
2023-05-01,47641.0
2023-05-02,47826.0
2023-05-03,48069.0
2023-05-04,48220.0
2023-05-05,48429.0
2023-05-06,48669.0
2023-05-07,48849.0
2023-05-08,49160.0
2023-05-09,49401.0
2023-05-10,49582.0
2023-05-11,49706.0
2023-05-12,49676.0
2023-05-13,49614.0
2023-05-14,49552.0
2023-05-15,49430.0
2023-05-16,49250.0
2023-05-17,49097.0
2023-05-18,48819.0
2023-05-19,48580.0
2023-05-20,48340.0
2023-05-21,48040.0
2023-05-22,47732.0
2023-05-23,47460.0
2023-05-24,47219.0
2023-05-25,46950.0
2023-05-26,46650.0
2023-05-27,46499.0
2023-05-28,
2023-05-29,
2023-05-30,
2023-05-31,
2023-06-01,45309.0
2023-06-02,45069.0
2023-06-03,44740.0
2023-06-04,44505.0
2023-06-05,44209.0
2023-06-06,43916.0
2023-06-07,43769.0
2023-06-08,43649.0
2023-06-09,43470.0
2023-06-10,43210.0
2023-06-11,42948.0
2023-06-12,42649.0
2023-06-13,42388.0
2023-06-14,42098.0
2023-06-15,41808.0
2023-06-16,41517.0
2023-06-17,41228.0
2023-06-18,40880.0
2023-06-19,40627.0
2023-06-20,40368.0
2023-06-21,40048.0
2023-06-22,39796.0
2023-06-23,39508.0
2023-06-24,39658.0
2023-06-25,39382.0
2023-06-26,38803.0
2023-06-27,
2023-06-28,38208.0
2023-06-29,37928.0
2023-06-30,37648.0
2023-07-01,37367.0
2023-07-02,37087.0
2023-07-03,36758.0
2023-07-04,36482.0
2023-07-05,36175.0
2023-07-06,35873.0
2023-07-07,35567.0
2023-07-08,35296.0
2023-07-09,34972.0
2023-07-10,34649.0
2023-07-11,34351.0
2023-07-12,34054.0
2023-07-13,33730.0
2023-07-14,33462.0
2023-07-15,33109.0
2023-07-16,32850.0
2023-07-17,32526.0
2023-07-18,32206.0
2023-07-19,31920.0
2023-07-20,31763.0
2023-07-21,31530.0
2023-07-22,31260.0
2023-07-23,30973.0
2023-07-24,30662.0
2023-07-25,30354.0
2023-07-26,30047.0
2023-07-27,29735.0
2023-07-28,29408.0
2023-07-29,29074.0
2023-07-30,28774.0
2023-07-31,28500.0
2023-08-01,28175.0
2023-08-02,27899.0
2023-08-03,27600.0
2023-08-04,27278.0
2023-08-05,27009.0
2023-08-06,26665.0
2023-08-07,26374.0
2023-08-08,26109.0
2023-08-09,25816.0
2023-08-10,25524.0
2023-08-11,25245.0
2023-08-12,24957.0
2023-08-13,24646.0
2023-08-14,24389.0
2023-08-15,24103.0
2023-08-16,23826.0
2023-08-17,23572.0
2023-08-18,23311.0
2023-08-19,23034.0
2023-08-20,22758.0
2023-08-21,22712.0
2023-08-22,22482.0
2023-08-23,22254.0
2023-08-24,22027.0
2023-08-25,21780.0
2023-08-26,21532.0
2023-08-27,21286.0
2023-08-28,21064.0
2023-08-29,20791.0
2023-08-30,20549.0
2023-08-31,20308.0
2023-09-01,20155.0
2023-09-02,19890.0
2023-09-03,19672.0
2023-09-04,19479.0
2023-09-05,19242.0
2023-09-06,19006.0
2023-09-07,18793.0
2023-09-08,18555.0
2023-09-09,18364.0
2023-09-10,18174.0
2023-09-11,18008.0
2023-09-12,17839.0
2023-09-13,17628.0
2023-09-14,17440.0
2023-09-15,17272.0
2023-09-16,17070.0
2023-09-17,16884.0
2023-09-18,16699.0
2023-09-19,16514.0
2023-09-20,16310.0
2023-09-21,16110.0
2023-09-22,15950.0
2023-09-23,15768.0
2023-09-24,15581.0
2023-09-25,15523.0
2023-09-26,15485.0
2023-09-27,15448.0
2023-09-28,15448.0
2023-09-29,15448.0
2023-09-30,15429.0
2023-10-01,15370.0
2023-10-02,15390.0
2023-10-03,15370.0
2023-10-04,15310.0
2023-10-05,15350.0
2023-10-06,15330.0
2023-10-07,15290.0
2023-10-08,15290.0
2023-10-09,15250.0
2023-10-10,15290.0
2023-10-11,15330.0
2023-10-12,15290.0
2023-10-13,15290.0
2023-10-14,15290.0
2023-10-15,15230.0
2023-10-16,15230.0
2023-10-17,15230.0
2023-10-18,15210.0
2023-10-19,15210.0
2023-10-20,15190.0
2023-10-21,15170.0
2023-10-22,15150.0
2023-10-23,15150.0
2023-10-24,15090.0
2023-10-25,15090.0
2023-10-26,15090.0
2023-10-27,15070.0
2023-10-28,15050.0
2023-10-29,15050.0
2023-10-30,15030.0
2023-10-31,15010.0
2023-11-01,15010.0
2023-11-02,15030.0
2023-11-03,15010.0
2023-11-04,15010.0
2023-11-05,15050.0
2023-11-06,15070.0
2023-11-07,15070.0
2023-11-08,15050.0
2023-11-09,15050.0
2023-11-10,15030.0
2023-11-11,15030.0
2023-11-12,15070.0
2023-11-13,15010.0
2023-11-14,15010.0
2023-11-15,14970.0
2023-11-16,14990.0
2023-11-17,14990.0
2023-11-18,15070.0
2023-11-19,15030.0
2023-11-20,15050.0
2023-11-21,
2023-11-22,
2023-11-23,
2023-11-24,
2023-11-25,
2023-11-26,
2023-11-27,
2023-11-28,14970.0
2023-11-29,14970.0
2023-11-30,14990.0
2023-12-01,14990.0
2023-12-02,15070.0
2023-12-03,15070.0
2023-12-04,15090.0
2023-12-05,15090.0
2023-12-06,15130.0
2023-12-07,15130.0
2023-12-08,15170.0
2023-12-09,15130.0
2023-12-10,15110.0
2023-12-11,15130.0
2023-12-12,15130.0
2023-12-13,15110.0
2023-12-14,15110.0
2023-12-15,15110.0
2023-12-16,15110.0
2023-12-17,15090.0
2023-12-18,15230.0
2023-12-19,15270.0
2023-12-20,15310.0
2023-12-21,15310.0
2023-12-22,15350.0
2023-12-23,15310.0
2023-12-24,15310.0
2023-12-25,15330.0
2023-12-26,15310.0
2023-12-27,15350.0
2023-12-28,15350.0
2023-12-29,15330.0
2023-12-30,15350.0
2023-12-31,15330.0
2024-01-01,15350.0
2024-01-02,15370.0
2024-01-03,15370.0
2024-01-04,15370.0
2024-01-05,15370.0
2024-01-06,15390.0
2024-01-07,15390.0
2024-01-08,15410.0
2024-01-09,15429.0
2024-01-10,15467.0
2024-01-11,15429.0
2024-01-12,15448.0
2024-01-13,15641.0
2024-01-14,15641.0
2024-01-15,15663.0
2024-01-16,15683.0
2024-01-17,15683.0
2024-01-18,15726.0
2024-01-19,15705.0
2024-01-20,15830.0
2024-01-21,16370.0
2024-01-22,17460.0
2024-01-23,18280.0
2024-01-24,19135.0
2024-01-25,19608.0
2024-01-26,19978.0
2024-01-27,20616.0
2024-01-28,21242.0
2024-01-29,21555.0
2024-01-30,21712.0
2024-01-31,21802.0
2024-02-01,21959.0
2024-02-02,22140.0
2024-02-03,22254.0
2024-02-04,22414.0
2024-02-05,22506.0
2024-02-06,22644.0
2024-02-07,
2024-02-08,
2024-02-09,
2024-02-10,
2024-02-11,
2024-02-12,
2024-02-13,
2024-02-14,
2024-02-15,
2024-02-16,
2024-02-17,
2024-02-18,
2024-02-19,
2024-02-20,
2024-02-21,
2024-02-22,
2024-02-23,
2024-02-24,25840.0
2024-02-25,25940.0
2024-02-26,26061.0
2024-02-27,26134.0
2024-02-28,26205.0
2024-02-29,26326.0
2024-03-01,26543.0
2024-03-02,26641.0
2024-03-03,26788.0
2024-03-04,26887.0
2024-03-05,27083.0
2024-03-06,27180.0
2024-03-07,27376.0
2024-03-08,27624.0
2024-03-09,27899.0
2024-03-10,28200.0
2024-03-11,28600.0
2024-03-12,28974.0
2024-03-13,29586.0
2024-03-14,30151.0
2024-03-15,30740.0
2024-03-16,31394.0
2024-03-17,32181.0
2024-03-18,33057.0
2024-03-19,33838.0
2024-03-20,34459.0
2024-03-21,34946.0
2024-03-22,35350.0
2024-03-23,35819.0
2024-03-24,36202.0
2024-03-25,36538.0
2024-03-26,36784.0
2024-03-27,37059.0
2024-03-28,37453.0
2024-03-29,37872.0
2024-03-30,38179.0
2024-03-31,38376.0
2024-04-01,38571.0
2024-04-02,38657.0
2024-04-03,38862.0
2024-04-04,39546.0
2024-04-05,39554.0
2024-04-06,39478.0
2024-04-07,39624.0
2024-04-08,39740.0
2024-04-09,39796.0
2024-04-10,39851.0
2024-04-11,39907.0
2024-04-12,39963.0
2024-04-13,40019.0
2024-04-14,40282.0
2024-04-15,40739.0
2024-04-16,41054.0
2024-04-17,41228.0
2024-04-18,41285.0
2024-04-19,41372.0
2024-04-20,41401.0
2024-04-21,41430.0
2024-04-22,41430.0
2024-04-23,41459.0
2024-04-24,41488.0
2024-04-25,41517.0
2024-04-26,41547.0
2024-04-27,41575.0
2024-04-28,41605.0
2024-04-29,41575.0
2024-04-30,41547.0
2024-05-01,41547.0
2024-05-02,41547.0
2024-05-03,41575.0
2024-05-04,41722.0
2024-05-05,41838.0
2024-05-06,41896.0
2024-05-07,41982.0
2024-05-08,42010.0
2024-05-09,42040.0
2024-05-10,42040.0
2024-05-11,42040.0
2024-05-12,42010.0
2024-05-13,41924.0
2024-05-14,41808.0
2024-05-15,41663.0
2024-05-16,41459.0
2024-05-17,41256.0
2024-05-18,40966.0
2024-05-19,40683.0
2024-05-20,40426.0
2024-05-21,40165.0
2024-05-22,39851.0
2024-05-23,39594.0
2024-05-24,39581.0
2024-05-25,39382.0
2024-05-26,38773.0
2024-05-27,38487.0
2024-05-28,38208.0
2024-05-29,37899.0
2024-05-30,37592.0
2024-05-31,37367.0
2024-06-01,37059.0
2024-06-02,36812.0
2024-06-03,36482.0
2024-06-04,36202.0
2024-06-05,35901.0
2024-06-06,35623.0
2024-06-07,35324.0
2024-06-08,35026.0
2024-06-09,34730.0
2024-06-10,34432.0
2024-06-11,34136.0
2024-06-12,33812.0
2024-06-13,33542.0
2024-06-14,33191.0
2024-06-15,
2024-06-16,
2024-06-17,
2024-06-18,
2024-06-19,
2024-06-20,
2024-06-21,
2024-06-22,
2024-06-23,
2024-06-24,
2024-06-25,
2024-06-26,
2024-06-27,29330.0
2024-06-28,29049.0
2024-06-29,28774.0
2024-06-30,28474.0
2024-07-01,28175.0
2024-07-02,27849.0
2024-07-03,27574.0
2024-07-04,27303.0
2024-07-05,27034.0
2024-07-06,26690.0
2024-07-07,26397.0
2024-07-08,26109.0
2024-07-09,25816.0
2024-07-10,25499.0
2024-07-11,25245.0
2024-07-12,24934.0
2024-07-13,24646.0
2024-07-14,24365.0
2024-07-15,24080.0
2024-07-16,23780.0
